• In Uzbekistan
  • List of Countries
  • For 7 days
  • Water Temperature
  • Satellite Maps
  • Weather Map
  • Weather Widgets
  • user-avatar
    Login

    Hourly Weather Winnipeg

    Today, 18 October, Thursday

    Time Temperature Precipitation Wind Pressure Humidity
    00:00 +1°C° 0 mm 6 mps 742 mmHg 75%
    01:00 +2°C° 0 mm 6 mps 741 mmHg 77%
    02:00 +2°C° 0 mm 6 mps 741 mmHg 79%
    03:00 +2°C° 0 mm 5 mps 740 mmHg 81%
    04:00 +2°C° 0 mm 5 mps 740 mmHg 80%
    05:00 +2°C° 0 mm 5 mps 740 mmHg 80%
    06:00 +3°C° 0 mm 4 mps 740 mmHg 79%
    07:00 +4°C° 0 mm 4 mps 739 mmHg 73%
    08:00 +6°C° 0 mm 4 mps 739 mmHg 67%
    09:00 +7°C° 0 mm 5 mps 739 mmHg 61%
    10:00 +10°C° 0 mm 5 mps 739 mmHg 55%
    11:00 +13°C° 0 mm 5 mps 739 mmHg 49%
    12:00 +15°C° 0 mm 5 mps 738 mmHg 42%
    13:00 +16°C° 0 mm 5 mps 738 mmHg 42%
    14:00 +17°C° 0 mm 5 mps 737 mmHg 41%
    15:00 +19°C° 0 mm 5 mps 737 mmHg 40%
    16:00 +17°C° 0 mm 5 mps 736 mmHg 45%
    17:00 +15°C° 0 mm 4 mps 736 mmHg 50%
    18:00 +13°C° 0 mm 4 mps 735 mmHg 56%
    19:00 +12°C° 0 mm 4 mps 735 mmHg 59%
    20:00 +12°C° 0 mm 3 mps 735 mmHg 61%
    21:00 +11°C° 0 mm 3 mps 735 mmHg 64%
    22:00 +10°C° 0 mm 3 mps 735 mmHg 67%
    23:00 +9°C° 0 mm 3 mps 735 mmHg 69%

    Tomorrow, 19 October, Friday

    Time Temperature Precipitation Wind Pressure Humidity
    00:00 +9°C° 0 mm 3 mps 735 mmHg 72%
    01:00 +8°C° 0 mm 3 mps 735 mmHg 72%
    02:00 +8°C° 0 mm 3 mps 735 mmHg 72%
    03:00 +8°C° 0 mm 3 mps 735 mmHg 72%
    04:00 +7°C° 0 mm 4 mps 736 mmHg 73%
    05:00 +6°C° 0 mm 4 mps 736 mmHg 75%
    06:00 +6°C° 0 mm 4 mps 736 mmHg 77%
    07:00 +7°C° 0 mm 5 mps 737 mmHg 74%
    08:00 +7°C° 0 mm 6 mps 737 mmHg 71%
    09:00 +6°C° 0 mm 7 mps 738 mmHg 68%
    10:00 +6°C° 0 mm 7 mps 738 mmHg 67%
    11:00 +6°C° 0 mm 7 mps 739 mmHg 66%
    12:00 +6°C° 0 mm 8 mps 739 mmHg 65%
    13:00 +6°C° 0 mm 7 mps 739 mmHg 64%
    14:00 +6°C° 0 mm 7 mps 739 mmHg 64%
    15:00 +5°C° 0 mm 7 mps 739 mmHg 64%
    16:00 +5°C° 0.1 mm 7 mps 739 mmHg 66%
    17:00 +5°C° 0.1 mm 6 mps 740 mmHg 68%
    18:00 +5°C° 0.1 mm 5 mps 740 mmHg 70%
    19:00 +3°C° 0.1 mm 6 mps 740 mmHg 67%
    20:00 +2°C° 0.1 mm 7 mps 741 mmHg 65%
    21:00 0°C° 0.1 mm 8 mps 741 mmHg 62%
    22:00 -1°C° 0 mm 8 mps 742 mmHg 62%
    23:00 -2°C° 0 mm 8 mps 742 mmHg 61%

    Day after tomorrow, 20 October, Saturday

    Time Temperature Precipitation Wind Pressure Humidity
    00:00 -4°C° 0 mm 8 mps 743 mmHg 60%
    01:00 -5°C° 0 mm 8 mps 744 mmHg 60%
    02:00 -5°C° 0 mm 8 mps 745 mmHg 60%
    03:00 -5°C° 0 mm 8 mps 745 mmHg 60%
    04:00 -4°C° 0 mm 7 mps 746 mmHg 61%
    05:00 -4°C° 0 mm 7 mps 747 mmHg 63%
    06:00 -4°C° 0 mm 6 mps 747 mmHg 64%
    07:00 -4°C° 0 mm 6 mps 748 mmHg 63%
    08:00 -4°C° 0 mm 6 mps 749 mmHg 61%
    09:00 -2°C° 0 mm 5 mps 750 mmHg 60%
    10:00 -1°C° 0 mm 5 mps 750 mmHg 57%
    11:00 0°C° 0 mm 4 mps 750 mmHg 54%
    12:00 +2°C° 0 mm 3 mps 750 mmHg 52%
    13:00 +2°C° 0 mm 3 mps 750 mmHg 50%
    14:00 +2°C° 0 mm 3 mps 750 mmHg 49%
    15:00 +4°C° 0 mm 2 mps 749 mmHg 47%
    16:00 +3°C° 0 mm 2 mps 749 mmHg 51%
    17:00 +2°C° 0 mm 2 mps 748 mmHg 55%
    18:00 +1°C° 0 mm 2 mps 748 mmHg 59%
    19:00 +1°C° 0 mm 2 mps 748 mmHg 60%
    20:00 0°C° 0 mm 3 mps 747 mmHg 61%
    21:00 -1°C° 0 mm 3 mps 747 mmHg 62%
    22:00 -1°C° 0 mm 4 mps 746 mmHg 60%
    23:00 -1°C° 0 mm 4 mps 746 mmHg 57%

    21 October, Sunday

    Time Temperature Precipitation Wind Pressure Humidity
    00:00 -1°C° 0 mm 5 mps 745 mmHg 55%
    01:00 0°C° 0 mm 5 mps 745 mmHg 54%
    02:00 0°C° 0 mm 5 mps 744 mmHg 53%
    03:00 0°C° 0 mm 5 mps 743 mmHg 52%
    04:00 0°C° 0 mm 5 mps 743 mmHg 53%
    05:00 0°C° 0 mm 5 mps 742 mmHg 53%
    06:00 0°C° 0 mm 4 mps 742 mmHg 54%
    07:00 0°C° 0 mm 4 mps 741 mmHg 52%
    08:00 +1°C° 0 mm 4 mps 741 mmHg 51%
    09:00 +3°C° 0 mm 4 mps 741 mmHg 50%
    10:00 +4°C° 0 mm 4 mps 741 mmHg 47%
    11:00 +7°C° 0 mm 3 mps 740 mmHg 44%
    12:00 +8°C° 0 mm 3 mps 740 mmHg 42%
    13:00 +9°C° 0 mm 3 mps 740 mmHg 42%
    14:00 +10°C° 0 mm 3 mps 739 mmHg 42%
    15:00 +11°C° 0 mm 3 mps 739 mmHg 43%
    16:00 +9°C° 0 mm 2 mps 739 mmHg 48%
    17:00 +8°C° 0 mm 2 mps 739 mmHg 53%
    18:00 +7°C° 0 mm 2 mps 739 mmHg 59%
    19:00 +6°C° 0 mm 2 mps 739 mmHg 60%
    20:00 +6°C° 0 mm 2 mps 739 mmHg 62%
    21:00 +4°C° 0 mm 3 mps 739 mmHg 64%
    22:00 +4°C° 0 mm 3 mps 739 mmHg 65%
    23:00 +4°C° 0 mm 3 mps 739 mmHg 66%

    22 October, Monday

    Time Temperature Precipitation Wind Pressure Humidity
    00:00 +3°C° 0 mm 3 mps 738 mmHg 67%
    01:00 +3°C° 0 mm 3 mps 738 mmHg 68%
    02:00 +3°C° 0 mm 4 mps 738 mmHg 68%
    03:00 +3°C° 0 mm 4 mps 738 mmHg 68%
    04:00 +1°C° 0 mm 4 mps 739 mmHg 70%
    05:00 +1°C° 0 mm 4 mps 739 mmHg 72%
    06:00 +1°C° 0 mm 5 mps 739 mmHg 73%
    07:00 +2°C° 0 mm 5 mps 740 mmHg 71%
    08:00 +2°C° 0 mm 6 mps 741 mmHg 70%
    09:00 +2°C° 0 mm 7 mps 741 mmHg 68%
    10:00 +3°C° 0 mm 7 mps 742 mmHg 64%
    11:00 +3°C° 0 mm 6 mps 742 mmHg 60%
    12:00 +4°C° 0 mm 6 mps 743 mmHg 56%
    13:00 +4°C° 0 mm 6 mps 743 mmHg 56%
    14:00 +5°C° 0 mm 5 mps 744 mmHg 57%
    15:00 +5°C° 0 mm 5 mps 744 mmHg 57%
    16:00 +4°C° 0 mm 4 mps 745 mmHg 61%
    17:00 +3°C° 0 mm 3 mps 745 mmHg 66%
    18:00 +2°C° 0 mm 3 mps 745 mmHg 70%
    19:00 +2°C° 0 mm 2 mps 746 mmHg 73%
    20:00 +2°C° 0 mm 2 mps 746 mmHg 76%
    21:00 +1°C° 0 mm 2 mps 746 mmHg 79%
    22:00 +2°C° 0 mm 1 mps 747 mmHg 80%
    23:00 +1°C° 0 mm 1 mps 747 mmHg 82%

    23 October, Tuesday

    Time Temperature Precipitation Wind Pressure Humidity
    00:00 +1°C° 0 mm 1 mps 748 mmHg 84%
    01:00 0°C° 0 mm 1 mps 748 mmHg 84%
    02:00 0°C° 0 mm 1 mps 748 mmHg 85%
    03:00 0°C° 0 mm 1 mps 748 mmHg 85%
    04:00 0°C° 0 mm 1 mps 749 mmHg 86%
    05:00 0°C° 0 mm 1 mps 749 mmHg 86%
    06:00 -2°C° 0 mm 2 mps 749 mmHg 87%
    07:00 -1°C° 0 mm 2 mps 749 mmHg 83%
    08:00 0°C° 0 mm 3 mps 749 mmHg 78%
    09:00 0°C° 0 mm 3 mps 749 mmHg 73%
    10:00 +2°C° 0 mm 3 mps 749 mmHg 67%
    11:00 +3°C° 0 mm 4 mps 748 mmHg 61%
    12:00 +5°C° 0 mm 4 mps 748 mmHg 55%
    13:00 +6°C° 0 mm 4 mps 748 mmHg 53%
    14:00 +6°C° 0 mm 5 mps 747 mmHg 52%
    15:00 +7°C° 0 mm 5 mps 746 mmHg 50%
    16:00 +6°C° 0 mm 5 mps 746 mmHg 55%
    17:00 +5°C° 0 mm 4 mps 745 mmHg 59%
    18:00 +3°C° 0 mm 4 mps 745 mmHg 64%
    19:00 +2°C° 0 mm 5 mps 745 mmHg 64%
    20:00 +2°C° 0 mm 5 mps 744 mmHg 63%
    21:00 +2°C° 0 mm 5 mps 744 mmHg 63%
    22:00 +2°C° 0 mm 5 mps 744 mmHg 64%
    23:00 +2°C° 0 mm 5 mps 743 mmHg 65%
    Show more